KB0KQA Weather Reports


Display with metric or nautical units.
time (UTC)temp
F
wind
direction
speed
MPH
gust
MPH
rain 1hr
in
rain 24hr
in
rain mn
in
humidity
%
barometer
mb
20260502195208 67 291 1.0 5.0 0.00 0.00 0.00 32 1009.4
20260502194209 67 234 1.0 5.0 0.00 0.00 0.00 31 1009.4
20260502193208 67 245 4.0 7.0 0.00 0.00 0.00 31 1009.6
20260502192208 67 265 5.0 8.0 0.00 0.00 0.00 32 1009.7
20260502191228 66 237 2.0 5.0 0.00 0.00 0.00 32 1009.9
20260502190208 66 271 0.0 1.0 0.00 0.00 0.00 32 1010.0
20260502185208 67 267 0.0 3.0 0.00 0.00 0.00 31 1010.0
20260502184228 67 322 1.0 5.0 0.00 0.00 0.00 30 1010.1
20260502183208 67 236 2.0 8.0 0.00 0.00 0.00 30 1010.2
20260502182208 68 169 0.0 3.0 0.00 0.00 0.00 30 1010.3
20260502181208 68 298 0.0 3.0 0.00 0.00 0.00 29 1010.6
20260502180208 69 178 0.0 3.0 0.00 0.00 0.00 29 1010.8
20260502170208 66 282 5.0 8.0 0.00 0.00 0.00 31 1011.5
20260502164208 64 158 4.0 7.0 0.00 0.00 0.00 37 1012.0
20260502163208 62 205 1.0 4.0 0.00 0.00 0.00 37 1012.1
20260502162208 62 172 2.0 7.0 0.00 0.00 0.00 38 1012.1
20260502161209 62 269 4.0 8.0 0.00 0.00 0.00 37 1012.3
20260502160208 63 261 1.0 5.0 0.00 0.00 0.00 34 1012.4
20260502152208 58 227 5.0 9.0 0.00 0.00 0.00 41 1012.8
20260502151228 57 188 4.0 8.0 0.00 0.00 0.00 44 1013.1
20260502150208 55 195 2.0 6.0 0.00 0.00 0.00 46 1013.2
20260502130208 39 0.0 0.0 0.00 0.00 0.00 84 1014.6
20260502123208 35 0.0 0.0 0.00 0.00 0.00 94 1014.8
20260502122208 34 0.0 0.0 0.00 0.00 0.00 95 1014.9
20260502121208 32 0.0 0.0 0.00 0.00 0.00 95 1014.9
20260502120248 31 0.0 0.0 0.00 0.00 0.00 96 1015.0
20260502115208 30 0.0 0.0 0.00 0.00 0.00 97 1015.0
20260502114208 29 0.0 0.0 0.00 0.00 0.00 97 1015.3
20260502113207 29 0.0 0.0 0.00 0.00 0.00 97 1015.3
20260502112208 29 0.0 0.0 0.00 0.00 0.00 97 1015.4
20260502111207 29 0.0 0.0 0.00 0.00 0.00 97 1015.4
20260502110208 28 0.0 0.0 0.00 0.00 0.00 97 1015.4
20260502105208 28 0.0 0.0 0.00 0.00 0.00 96 1015.4
20260502104228 28 0.0 0.0 0.00 0.00 0.00 96 1015.5
20260502103209 28 0.0 0.0 0.00 0.00 0.00 96 1015.6
20260502102228 28 0.0 0.0 0.00 0.00 0.00 96 1015.7
20260502101248 28 0.0 0.0 0.00 0.00 0.00 96 1015.7
20260502100208 28 0.0 0.0 0.00 0.00 0.00 95 1015.8
20260502091208 29 0.0 0.0 0.00 0.00 0.00 94 1016.3
20260502090208 29 0.0 0.0 0.00 0.00 0.00 93 1016.3
20260502071208 30 0.0 0.0 0.00 0.00 0.00 90 1016.6
20260502070208 31 0.0 0.0 0.00 0.00 0.00 89 1016.8
20260502065208 31 0.0 0.0 0.00 0.00 0.00 88 1016.9
20260502064209 31 0.0 0.0 0.00 0.00 0.00 86 1016.8
20260502063208 31 0.0 0.0 0.00 0.00 0.00 85 1016.8
20260502062208 31 0.0 0.0 0.00 0.00 0.00 83 1016.9
20260502061208 32 0.0 0.0 0.00 0.00 0.00 82 1016.9
20260502060209 32 0.0 0.0 0.00 0.00 0.00 82 1016.9
20260502055208 32 0.0 0.0 0.00 0.00 0.00 80 1016.9
20260502054209 32 0.0 0.0 0.00 0.00 0.00 78 1017.0
20260502053208 33 0.0 0.0 0.00 0.00 0.00 77 1017.1
20260502052209 33 0.0 0.0 0.00 0.00 0.00 76 1017.2
20260502051227 33 0.0 0.0 0.00 0.00 0.00 74 1017.2
20260502050208 34 0.0 0.0 0.00 0.00 0.00 73 1017.2
20260502045208 34 0.0 0.0 0.00 0.00 0.00 73 1017.3
20260502044208 34 0.0 0.0 0.00 0.00 0.00 72 1017.4
20260502043208 35 0.0 0.0 0.00 0.00 0.00 67 1017.4
20260502042208 35 0.0 0.0 0.00 0.00 0.00 66 1017.5
20260502041208 36 0.0 0.0 0.00 0.00 0.00 65 1017.4
20260502040208 36 0.0 0.0 0.00 0.00 0.00 65 1017.5
20260502035208 36 0.0 0.0 0.00 0.00 0.00 62 1017.4
20260502034208 37 0.0 0.0 0.00 0.00 0.00 63 1017.4
20260502033309 37 0.0 0.0 0.00 0.00 0.00 62 1017.4
20260502032228 38 0.0 0.0 0.00 0.00 0.00 61 1017.5
20260502031208 38 0.0 0.0 0.00 0.00 0.00 60 1017.5
20260502030208 39 0.0 0.0 0.00 0.00 0.00 56 1017.5
20260502025208 39 0.0 0.0 0.00 0.00 0.00 54 1017.5
20260502024209 40 0.0 0.0 0.00 0.00 0.00 53 1017.4
20260502023209 40 0.0 0.0 0.00 0.00 0.00 53 1017.4
20260502022208 41 0.0 0.0 0.00 0.00 0.00 52 1017.4
20260502021208 42 0.0 0.0 0.00 0.00 0.00 48 1017.2
20260502020208 43 0.0 0.0 0.00 0.00 0.00 46 1017.1
20260502015208 45 0.0 0.0 0.00 0.00 0.00 44 1017.1
20260502014208 46 0.0 0.0 0.00 0.00 0.00 43 1017.0
20260502013208 48 0.0 0.0 0.00 0.00 0.00 41 1017.0
20260502012208 49 0.0 0.0 0.00 0.00 0.00 40 1017.1
20260502011208 49 0.0 0.0 0.00 0.00 0.00 40 1016.9
20260502010208 50 0.0 0.0 0.00 0.00 0.00 39 1016.9
20260502005208 50 18 3.0 5.0 0.00 0.00 0.00 38 1016.9
20260502004208 51 334 4.0 7.0 0.00 0.00 0.00 38 1016.8
20260502003235 51 4 3.0 7.0 0.00 0.00 0.00 37 1016.8
20260502002208 52 29 4.0 7.0 0.00 0.00 0.00 37 1016.9
20260502001208 52 9 4.0 8.0 0.00 0.00 0.00 36 1016.7
20260502000208 52 20 6.0 9.0 0.00 0.00 0.00 35 1016.7
20260501235213 53 21 5.0 8.0 0.00 0.00 0.00 35 1016.7
20260501234231 54 15 3.0 5.0 0.00 0.00 0.00 33 1016.7
20260501233234 54 355 2.0 5.0 0.00 0.00 0.00 35 1016.7
20260501232210 54 342 3.0 6.0 0.00 0.00 0.00 33 1016.7
20260501231229 55 4 1.0 7.0 0.00 0.00 0.00 32 1016.8
20260501230211 55 334 1.0 4.0 0.00 0.00 0.00 34 1016.8
20260501225231 55 42 2.0 7.0 0.00 0.00 0.00 32 1016.9
20260501224214 55 40 5.0 11.0 0.00 0.00 0.00 32 1017.0
20260501223214 56 19 7.0 12.0 0.00 0.00 0.00 31 1017.0
20260501222213 55 337 2.0 7.0 0.00 0.00 0.00 32 1017.0
20260501221224 55 6 3.0 8.0 0.00 0.00 0.00 31 1017.2
20260501220211 55 359 5.0 10.0 0.00 0.00 0.00 32 1017.2
20260501215227 56 3 7.0 11.0 0.00 0.00 0.00 31 1017.2
20260501214213 55 5 9.0 15.0 0.00 0.00 0.00 32 1017.3
20260501213233 55 10 6.0 10.0 0.00 0.00 0.00 30 1017.3
20260501212211 55 2 4.0 10.0 0.00 0.00 0.00 30 1017.5
20260501211210 55 4 5.0 9.0 0.00 0.00 0.00 29 1017.5
20260501210210 55 5 3.0 9.0 0.00 0.00 0.00 29 1017.4
20260501205211 56 357 6.0 13.0 0.00 0.00 0.00 29 1017.7
20260501204219 56 0.0 0.0 0.00 0.00 0.00 30 1017.7
20260501203210 55 346 5.0 11.0 0.00 0.00 0.00 33 1017.8
20260501202211 54 45 5.0 8.0 0.00 0.00 0.00 30 1017.7
20260501201209 54 19 4.0 10.0 0.00 0.00 0.00 30 1017.8
20260501200210 56 357 6.0 14.0 0.00 0.00 0.00 29 1017.8